Simultaneous Nadir Overpasses (SNOs) Predictions

Prediction of SNOs between METOP-A and NOAA-19 Satellite Orbit:

Table of predicted SNOs for the next 14.0 days since TLE Epoch: 10/9/2015
Index Date (METOP-A) Time (METOP-A) Lat,Lon (METOP-A) SZA (METOP-A ) Date (NOAA-19) Time (NOAA-19) Lat,Lon (NOAA-19) SZA (NOAA-19 ) Distance(km) Time Diff (sec)
1 10/10/2015 01:13:11 75.88, 160.78 82.27 10/10/2015 01:12:03 75.90, 158.06 82.28 73.77 68
2 10/10/2015 02:04:01 -75.47, -33.18 98.14 10/10/2015 02:02:50 -75.49, -33.28 98.13 3.00 71
3 10/10/2015 02:54:42 75.44, 134.03 81.84 10/10/2015 02:53:55 75.43, 134.15 81.83 3.43 47
4 10/10/2015 03:45:23 -75.45, -58.59 98.14 10/10/2015 03:44:51 -75.42, -58.57 98.17 3.56 32
5 10/10/2015 04:36:04 75.41, 108.62 81.84 10/10/2015 04:35:57 75.40, 108.71 81.84 2.59 7
6 10/10/2015 05:26:45 -75.43, -84.00 98.13 10/10/2015 05:26:53 -75.40, -84.01 98.16 3.40 8
7 10/10/2015 06:17:26 75.39, 83.22 81.85 10/10/2015 06:17:59 75.38, 83.27 81.84 1.77 33
8 10/10/2015 07:08:08 -75.36,-109.55 98.18 10/10/2015 07:08:55 -75.38,-109.45 98.16 3.42 47
9 10/10/2015 07:58:48 75.37, 57.81 81.85 10/10/2015 08:00:01 75.36, 57.83 81.85 1.05 73
10 10/10/2015 08:49:41 -74.81,-136.46 98.70 10/10/2015 08:50:47 -74.89,-133.47 98.61 87.46 66
11 10/20/2015 14:37:03 75.48, -41.47 85.76 10/20/2015 14:35:56 75.48, -41.34 85.77 3.74 67
12 10/20/2015 15:27:44 -75.51, 125.94 94.20 10/20/2015 15:26:52 -75.52, 125.82 94.19 3.64 52
13 10/20/2015 16:18:25 75.46, -66.88 85.77 10/20/2015 16:17:58 75.46, -66.78 85.77 2.89 27
14 10/20/2015 17:09:07 -75.44, 100.39 94.24 10/20/2015 17:08:53 -75.45, 100.52 94.23 3.96 14
15 10/20/2015 17:59:47 75.43, -92.29 85.77 10/20/2015 18:00:00 75.44, -92.22 85.77 2.05 13
16 10/20/2015 18:50:29 -75.41, 74.98 94.24 10/20/2015 18:50:55 -75.43, 75.08 94.23 3.18 26
17 10/20/2015 19:41:09 75.41,-117.70 85.77 10/20/2015 19:42:02 75.42,-117.66 85.78 1.32 53
18 10/20/2015 20:31:51 -75.39, 49.57 94.24 10/20/2015 20:32:57 -75.41, 49.64 94.22 2.52 66




NCC Satellite Simultaneous Nadir Overpasses (SNOs) Prediction Service
